Wind_Speed
57 54 53 56 54 53 54 57 57 57 58 55 60 60 61 63 63 64 67 68 69 70 71 73 74 77 79 83 86 88 85 83
59 52 50 51 52 56 58 59 60 60 60 63 66 67 68 66 67 71 72 71 74 74 77 79 82 82 86 90 93 92 93 93
60 57 55 56 60 61 63 65 63 64 67 67 69 69 69 70 73 73 75 77 78 79 83 85 87 90 93 96 95 99 103 104
62 63 62 61 64 65 65 66 69 70 70 70 71 73 75 76 76 78 80 81 82 85 87 91 94 97 101 101 105 109 109 108
61 62 62 64 65 63 66 69 72 72 72 75 77 77 77 78 80 84 86 87 89 91 94 97 102 104 107 108 110 109 100 98
65 67 66 65 68 69 71 73 74 75 79 80 79 81 83 84 86 87 89 92 93 96 101 105 106 109 112 111 108 104 92 89
68 68 67 67 71 73 76 77 77 79 80 80 82 85 86 89 90 93 96 98 102 105 108 112 112 112 110 108 105 94 85 79
71 71 72 74 76 77 79 79 78 79 82 84 87 89 91 94 96 98 101 103 105 107 108 111 113 110 111 104 99 88 78 72
72 73 74 76 79 80 80 80 82 83 85 89 92 96 99 100 103 106 107 107 110 112 115 119 117 118 107 101 88 81 70 65
79 77 77 79 82 85 85 85 86 89 92 94 96 101 105 108 110 109 107 112 115 118 127 125 117 111 103 89 82 73 64 60
80 81 84 85 85 89 90 90 92 94 96 100 106 108 111 105 106 109 113 115 119 127 128 116 112 104 89 79 74 66 58 56
84 85 87 87 88 89 92 93 96 100 103 107 107 109 106 107 108 113 114 119 129 123 110 104 97 87 77 70 65 58 54 51
88 88 90 90 90 93 98 100 101 99 98 97 98 102 103 110 116 122 121 126 131 118 103 92 86 77 67 62 57 51 46 44
91 92 92 96 91 94 96 98 92 93 95 98 99 106 110 113 121 123 124 132 125 102 93 86 76 66 60 54 50 44 41 40
94 96 96 93 98 98 99 93 94 102 109 106 110 111 117 122 127 129 134 135 108 93 86 75 66 58 51 48 44 40 38 35
100 101 98 103 108 102 103 100 99 110 113 114 117 118 128 136 139 139 137 122 96 87 75 67 57 50 45 44 40 35 34 33
96 101 108 116 106 102 108 106 111 119 126 127 130 131 137 138 134 131 110 96 87 75 67 59 50 42 40 37 36 33 32 31
103 109 107 102 107 107 109 111 124 130 133 135 136 140 143 138 122 107 93 85 76 67 59 53 43 39 36 34 35 34 31 31
112 114 109 106 117 118 122 130 134 141 142 140 134 130 121 113 103 88 82 75 67 61 53 45 40 37 35 34 34 34 34 33
Wind_Direction
274 271 275 277 275 272 272 274 274 276 281 282 285 286 285 288 289 294 296 297 299 299 301 302 303 304 302 300 298 295 294 291
273 275 276 278 276 276 276 276 277 279 282 284 286 287 288 290 292 295 297 296 298 299 300 301 302 301 301 300 298 295 292 290
270 275 277 277 274 274 278 280 279 278 283 284 286 287 289 292 293 294 295 295 298 300 300 301 301 300 299 296 293 292 289 284
277 277 277 278 278 279 280 280 281 282 283 284 285 286 288 289 291 293 294 297 299 300 300 301 300 299 299 296 294 292 288 287
276 276 277 275 275 277 280 279 279 279 280 283 285 285 286 289 290 293 295 297 299 300 301 300 300 299 298 298 294 291 290 286
270 272 274 277 276 277 277 278 278 279 280 282 283 287 288 290 293 295 296 297 299 300 300 299 299 300 301 301 296 295 292 286
274 275 276 278 279 279 278 280 280 280 282 284 287 289 291 293 294 294 296 297 297 298 298 299 302 302 303 302 298 296 291 284
273 275 274 273 275 277 278 282 283 283 284 285 287 289 291 292 293 295 296 296 296 296 300 305 304 308 306 302 299 294 288 283
277 275 275 277 279 281 282 285 286 286 286 287 289 290 291 292 293 294 295 300 301 301 303 307 310 310 306 300 295 291 288 282
280 279 279 280 280 282 282 285 287 288 287 287 288 292 292 292 294 296 298 300 306 308 310 309 309 309 303 298 293 291 288 279
277 278 280 282 281 279 283 284 285 284 284 285 288 290 291 294 296 299 302 305 308 307 307 308 308 306 300 296 293 290 285 277
277 278 279 279 280 278 279 281 282 283 284 286 288 289 288 292 300 302 303 305 308 313 310 308 305 302 299 295 293 289 282 275
274 275 276 278 281 279 278 281 283 283 284 287 291 291 293 296 298 301 304 308 312 310 306 306 306 302 299 295 291 286 278 269
278 281 280 280 284 280 279 283 282 280 287 291 297 297 298 296 299 303 307 309 309 306 307 306 304 301 297 292 287 283 275 268
280 281 282 284 284 281 287 284 287 288 291 292 296 297 299 298 299 303 306 309 305 306 306 304 301 299 293 289 286 282 275 267
277 278 280 285 287 288 291 293 288 289 291 293 297 299 299 302 300 302 304 305 304 303 304 302 299 294 291 287 285 280 272 263
273 279 281 281 285 286 289 290 289 290 294 296 297 296 296 298 300 303 304 302 301 304 302 298 295 291 288 284 282 277 269 262
272 279 281 280 282 284 286 285 286 288 289 290 291 292 295 297 299 301 301 300 302 302 299 295 292 290 287 284 279 274 266 262
273 277 279 273 279 281 282 283 285 288 289 290 291 291 293 295 298 298 299 298 301 300 295 292 291 289 286 282 276 272 266 258
Height
10687 10690 10692 10690 10689 10689 10689 10688 10687 10686 10683 10681 10677 10675 10672 10668 10664 10660 10656 10651 10647 10643 10639 10635 10631 10627 10624 10621 10616 10611 10609 10607
10674 10678 10679 10678 10675 10675 10675 10674 10673 10673 10671 10668 10664 10660 10657 10653 10648 10643 10639 10634 10630 10625 10620 10615 10610 10605 10601 10595 10589 10585 10581 10578
10664 10665 10667 10667 10663 10663 10662 10661 10658 10657 10656 10652 10648 10644 10640 10636 10630 10625 10621 10616 10611 10606 10601 10595 10590 10585 10580 10574 10567 10561 10554 10548
10652 10651 10653 10653 10650 10650 10648 10645 10643 10640 10638 10636 10633 10630 10626 10620 10614 10606 10601 10597 10592 10587 10581 10574 10567 10560 10552 10545 10536 10526 10516 10507
10639 10637 10640 10639 10637 10637 10634 10633 10630 10627 10623 10620 10618 10614 10609 10605 10599 10591 10583 10575 10570 10564 10557 10551 10544 10535 10524 10514 10500 10487 10481 10472
10627 10624 10626 10626 10622 10622 10618 10616 10614 10610 10607 10603 10600 10595 10589 10583 10578 10571 10563 10555 10549 10542 10535 10526 10516 10504 10491 10478 10463 10452 10446 10437
10613 10610 10611 10611 10608 10605 10601 10597 10594 10591 10588 10583 10578 10573 10568 10562 10556 10549 10542 10535 10527 10520 10511 10499 10487 10475 10459 10444 10433 10423 10414 10406
10598 10597 10597 10593 10588 10585 10583 10579 10576 10573 10569 10564 10558 10552 10546 10539 10533 10526 10518 10511 10503 10491 10482 10468 10455 10438 10425 10412 10402 10393 10386 10379
10583 10580 10578 10575 10570 10567 10565 10560 10557 10554 10549 10543 10537 10531 10524 10516 10510 10501 10493 10484 10474 10464 10450 10436 10421 10408 10392 10381 10373 10365 10361 10356
10562 10558 10555 10554 10551 10547 10544 10543 10538 10533 10528 10522 10516 10510 10502 10495 10487 10477 10467 10456 10446 10435 10421 10408 10394 10380 10366 10355 10346 10341 10337 10334
10541 10536 10533 10532 10528 10525 10524 10521 10517 10511 10505 10499 10492 10486 10479 10473 10464 10453 10441 10430 10422 10411 10396 10380 10368 10354 10341 10331 10324 10319 10316 10313
10520 10516 10512 10509 10508 10507 10504 10499 10495 10490 10483 10477 10471 10463 10456 10450 10440 10429 10417 10409 10396 10380 10367 10356 10343 10329 10319 10310 10304 10300 10298 10295
10498 10494 10488 10486 10487 10486 10480 10476 10472 10467 10459 10453 10448 10442 10435 10429 10418 10405 10394 10381 10368 10357 10345 10332 10319 10308 10300 10292 10287 10284 10283 10282
10473 10470 10464 10461 10460 10460 10456 10451 10447 10443 10434 10431 10425 10418 10412 10405 10392 10380 10370 10358 10347 10334 10322 10311 10299 10290 10284 10277 10274 10272 10270 10270
10451 10443 10436 10435 10432 10432 10430 10426 10423 10415 10410 10406 10402 10395 10386 10379 10367 10355 10346 10337 10324 10311 10301 10291 10283 10275 10269 10264 10262 10260 10258 10259
10425 10421 10417 10413 10406 10405 10401 10399 10394 10390 10382 10380 10375 10370 10357 10345 10339 10331 10323 10315 10303 10293 10282 10274 10267 10262 10257 10253 10250 10249 10248 10249
10400 10400 10399 10388 10384 10384 10374 10370 10366 10355 10347 10347 10344 10341 10330 10325 10314 10309 10299 10292 10283 10275 10265 10258 10252 10249 10246 10242 10240 10240 10240 10240
10379 10378 10376 10369 10363 10358 10359 10351 10339 10335 10336 10331 10326 10318 10308 10299 10292 10288 10280 10272 10264 10257 10250 10243 10238 10237 10235 10232 10231 10230 10231 10231
10355 10356 10349 10349 10348 10343 10338 10322 10318 10314 10304 10305 10298 10294 10286 10279 10274 10268 10261 10253 10247 10242 10236 10230 10227 10225 10224 10222 10221 10219 10220 10222